Rhodes, Greece

4:09 PM EET on February 07, 2016 (GMT +0200)
Diagoras

Weather History for LGRP - November, 2012

Change the Weather History Date:

Friday, November 23, 2012

  Actual Average Record
Temperature  
Mean Temperature 62 °F -  
Max Temperature 68 °F 63 °F 73 °F (1998)
Min Temperature 55 °F 52 °F 46 °F (2004)
Degree Days  
Heating Degree Days 4    
Growing Degree Days 12 (Base 50)    
Moisture  
Dew Point 53 °F    
Average Humidity 76    
Maximum Humidity 100    
Minimum Humidity 44    
Precipitation  
Precipitation 0.00 in 0.17 in - ()
Sea Level Pressure  
Sea Level Pressure 29.98 in    
Wind  
Wind Speed 3 mph ()    
Max Wind Speed 12 mph    
Max Gust Speed -    
Visibility 6.2 miles    
Events      
Averages and records for this station are not official NWS values.
T = Trace of Precipitation, MM = Missing Value Source: Averaged Metar Reports

Daily Weather History Graph

Daily Weather History Graph

Search for Another Location

Airport or City:

Trip Planner

Search our weather history database for the weather conditions in past years. The results will help you decide how hot, cold, wet, or windy it might be!

Date:

Astronomy

Nov. 23, 2012 Rise Set
Actual Time 6:53 AM EET 4:54 PM EET
Civil Twilight 6:25 AM EET 5:22 PM EET
Nautical Twilight 5:53 AM EET 5:54 PM EET
Astronomical Twilight 5:22 AM EET 6:25 PM EET
Moon 1:53 PM EET (11/23) 2:00 AM EET (11/23)
Length of Visible Light 10h 57m
Length of Day
10h 01m
Waxing Gibbous, 77% of the Moon is Illuminated
Nov 23
Waxing Gibbous
Nov 28
Full
Dec 6
Last Quarter
Dec 13
New
Dec 20
First Quarter

Hourly Weather History & Observations

Time (EET) Temp. Dew Point Humidity Pressure Visibility Wind Dir Wind Speed Gust Speed Precip Events Conditions
12:20 AM 59.0 °F 57.2 °F 94% 29.95 in 6.2 mi SE 1.2 mph - N/A   Partly Cloudy
12:50 AM 59.0 °F 57.2 °F 94% 29.95 in 6.2 mi Variable 1.2 mph - N/A   Scattered Clouds
1:20 AM 59.0 °F 57.2 °F 94% 29.95 in 6.2 mi Calm Calm - N/A   Scattered Clouds
1:50 AM 57.2 °F 55.4 °F 94% 29.95 in 6.2 mi Variable 1.2 mph - N/A   Scattered Clouds
2:00 AM 57 °F 56 °F 95% 29.97 in 6 mi ESE 1.2 mph - -   Partly Cloudy
2:20 AM 57.2 °F 55.4 °F 94% 29.95 in 6.2 mi Calm Calm - N/A   Scattered Clouds
2:50 AM 55.4 °F 55.4 °F 100% 29.95 in 6.2 mi ESE 2.3 mph - N/A   Scattered Clouds
3:20 AM 55.4 °F 55.4 °F 100% 29.95 in 6.2 mi South 1.2 mph - N/A   Partly Cloudy
3:50 AM 55.4 °F 55.4 °F 100% 29.95 in 6.2 mi Calm Calm - N/A   Partly Cloudy
4:20 AM 55.4 °F 53.6 °F 94% 29.95 in 6.2 mi Variable 1.2 mph - N/A   Partly Cloudy
4:50 AM 55.4 °F 55.4 °F 100% 29.95 in 6.2 mi Variable 1.2 mph - N/A   Partly Cloudy
5:20 AM 55.4 °F 55.4 °F 100% 29.95 in 6.2 mi ESE 2.3 mph - N/A   Partly Cloudy
5:50 AM 55.4 °F 55.4 °F 100% 29.95 in 6.2 mi ESE 1.2 mph - N/A   Partly Cloudy
6:20 AM 55.4 °F 55.4 °F 100% 29.95 in 6.2 mi East 1.2 mph - N/A   Partly Cloudy
6:50 AM 59.0 °F 57.2 °F 94% 29.95 in 6.2 mi NW 5.8 mph - N/A   Partly Cloudy
7:20 AM 57.2 °F 57.2 °F 100% 29.98 in 6.2 mi Calm Calm - N/A   Partly Cloudy
7:50 AM 59.0 °F 55.4 °F 88% 29.98 in - Variable 3.5 mph - N/A   Clear
8:00 AM 59 °F 54 °F 80% 29.99 in 6 mi 3.5 mph - -  
8:20 AM 60.8 °F 55.4 °F 82% 29.98 in - Variable 3.5 mph - N/A   Clear
8:50 AM 62.6 °F 53.6 °F 72% 29.98 in - WNW 8.1 mph - N/A   Clear
9:20 AM 64.4 °F 53.6 °F 68% 29.98 in - NW 4.6 mph - N/A   Clear
9:50 AM 66.2 °F 53.6 °F 64% 29.98 in - NW 6.9 mph - N/A   Clear
10:20 AM 66.2 °F 53.6 °F 64% 29.98 in - WNW 6.9 mph - N/A   Clear
10:50 AM 66.2 °F 50.0 °F 56% 30.01 in - WNW 8.1 mph - N/A   Clear
11:20 AM 66.2 °F 50.0 °F 56% 30.01 in - NW 6.9 mph - N/A   Clear
11:50 AM 66.2 °F 50.0 °F 56% 29.98 in - WNW 9.2 mph - N/A   Clear
12:20 PM 66.2 °F 50.0 °F 56% 29.98 in - WNW 10.4 mph - N/A   Clear
12:50 PM 66.2 °F 50.0 °F 56% 29.98 in - WNW 11.5 mph - N/A   Clear
1:20 PM 66.2 °F 50.0 °F 56% 29.98 in - WNW 10.4 mph - N/A   Clear
1:50 PM 68.0 °F 50.0 °F 52% 29.98 in - WNW 10.4 mph - N/A   Clear
2:00 PM 67 °F 50 °F 44% 29.99 in 6 mi WNW 10.4 mph - -  
2:20 PM 68.0 °F 50.0 °F 52% 29.98 in - West 9.2 mph - N/A   Clear
2:50 PM 68.0 °F 51.8 °F 56% 29.98 in - West 10.4 mph - N/A   Clear
3:20 PM 68.0 °F 51.8 °F 56% 29.98 in - West 10.4 mph - N/A   Clear
3:50 PM 68.0 °F 53.6 °F 60% 29.98 in - West 10.4 mph - N/A   Clear
4:20 PM 66.2 °F 53.6 °F 64% 29.98 in - West 8.1 mph - N/A   Clear
4:50 PM 66.2 °F 55.4 °F 68% 29.98 in - West 8.1 mph - N/A   Clear
5:20 PM 66.2 °F 55.4 °F 68% 29.98 in - West 8.1 mph - N/A   Clear
5:50 PM 62.6 °F 51.8 °F 68% 29.98 in - WNW 8.1 mph - N/A   Clear
6:20 PM 60.8 °F 51.8 °F 72% 29.98 in - Variable 2.3 mph - N/A   Clear
6:50 PM 60.8 °F 51.8 °F 72% 30.01 in - Variable 2.3 mph - N/A   Clear
7:20 PM 59.0 °F 51.8 °F 77% 30.01 in - Variable 2.3 mph - N/A   Clear
7:50 PM 59.0 °F 51.8 °F 77% 30.01 in - Calm Calm - N/A   Clear
8:00 PM 59 °F 52 °F 69% 30.01 in 6 mi Calm Calm - -   Clear
8:20 PM 59.0 °F 51.8 °F 77% 30.01 in - Calm Calm - N/A   Clear
8:50 PM 59.0 °F 51.8 °F 77% 30.01 in - Calm Calm - N/A   Clear
9:20 PM 60.8 °F 50.0 °F 68% 30.01 in - Calm Calm - N/A   Clear
9:50 PM 59.0 °F 51.8 °F 77% 30.01 in - Variable 2.3 mph - N/A   Clear
10:20 PM 59.0 °F 51.8 °F 77% 30.01 in - Variable 2.3 mph - N/A   Clear
10:50 PM 60.8 °F 51.8 °F 72% 30.01 in - SSW 4.6 mph - N/A   Clear
11:20 PM 60.8 °F 51.8 °F 72% 30.01 in - SW 5.8 mph - N/A   Clear
11:50 PM 60.8 °F 51.8 °F 72% 30.01 in - SSW 5.8 mph - N/A   Clear